Location: ??????????
(54.8537°N, 38.8755°E)
Time: 23:01:16
(UTC+00:00)

Vanguard 2 Rocket - Pass Details

Date: 15 September 2024
Orbit: 553 x 3298 km, 32.9° (Epoch: 09 October)

Event Time Altitude Azimuth Distance (km) Brightness Sun altitude
Rises 21:24:21 0° 188° (S) 4,436 - -32.6°
Reaches altitude 10° 21:29:18 10° 163° (SSE) 4,022 - -32.5°
Maximum altitude 21:33:53 13° 138° (SE) 4,228 - -32.5°
Exits shadow 21:36:53 12° 124° (SE) 4,613 10.2 -32.5°
Drops below altitude 10° 21:39:22 10° 115° (ESE) 5,030 10.5 -32.4°
Sets 21:47:24 0° 94° (E) 6,659 11.4 -32.3°
